When you browse on this site, cookies collect data to enhance your experience and personalize the content and advertising you see.
Visit our Privacy Policy to learn more. By continuing to use the site, you agree to this use of cookies and data.
  • In Hungary
  • List of Countries
  • For 7 days
  • Water Temperature
  • Weather Map
  • News
  • Weather Widgets
  • user-avatar
    Login

    Hourly Weather Akatovo

    Today, 26 January, Sunday

    Time Temperature Precipitation Wind Pressure Humidity
    00:00 -4°C° 0 mm 4 mps 731 mmHg 81%
    01:00 -4°C° 0 mm 3 mps 731 mmHg 83%
    02:00 -5°C° 0 mm 3 mps 732 mmHg 84%
    03:00 -5°C° 0 mm 3 mps 732 mmHg 85%
    04:00 -5°C° 0 mm 3 mps 733 mmHg 86%
    05:00 -4°C° 0 mm 2 mps 733 mmHg 87%
    06:00 -5°C° 0 mm 3 mps 733 mmHg 86%
    07:00 -4°C° 0 mm 3 mps 733 mmHg 84%
    08:00 -4°C° 0 mm 3 mps 733 mmHg 82%
    09:00 -4°C° 0 mm 3 mps 733 mmHg 79%
    10:00 -2°C° 0 mm 3 mps 733 mmHg 75%
    11:00 -2°C° 0 mm 4 mps 733 mmHg 72%
    12:00 -2°C° 0.3 mm 4 mps 732 mmHg 80%
    13:00 -2°C° 0.3 mm 5 mps 731 mmHg 87%
    14:00 -3°C° 0.3 mm 6 mps 731 mmHg 95%
    15:00 -1°C° 0.1 mm 5 mps 731 mmHg 93%
    16:00 -1°C° 0.1 mm 5 mps 731 mmHg 91%
    17:00 0°C° 0.1 mm 5 mps 730 mmHg 89%
    18:00 0°C° 0 mm 5 mps 730 mmHg 90%
    19:00 +1°C° 0 mm 5 mps 731 mmHg 90%
    20:00 +1°C° 0 mm 5 mps 731 mmHg 91%
    21:00 +1°C° 0 mm 5 mps 731 mmHg 91%
    22:00 +1°C° 0 mm 5 mps 731 mmHg 92%
    23:00 +1°C° 0 mm 5 mps 731 mmHg 92%

    Tomorrow, 27 January, Monday

    Time Temperature Precipitation Wind Pressure Humidity
    00:00 +1°C° 0 mm 4 mps 732 mmHg 93%
    01:00 +1°C° 0 mm 4 mps 732 mmHg 94%
    02:00 +1°C° 0 mm 4 mps 732 mmHg 94%
    03:00 0°C° 0 mm 4 mps 732 mmHg 95%
    04:00 +1°C° 0 mm 3 mps 732 mmHg 95%
    05:00 +1°C° 0 mm 3 mps 732 mmHg 96%
    06:00 +1°C° 0 mm 3 mps 733 mmHg 96%
    07:00 +2°C° 0 mm 2 mps 733 mmHg 97%
    08:00 +1°C° 0 mm 2 mps 733 mmHg 97%
    09:00 +1°C° 0.2 mm 2 mps 733 mmHg 97%
    10:00 +1°C° 0.2 mm 2 mps 733 mmHg 97%
    11:00 +1°C° 0.2 mm 2 mps 733 mmHg 97%
    12:00 +2°C° 0.3 mm 2 mps 733 mmHg 97%
    13:00 +2°C° 0.3 mm 2 mps 733 mmHg 97%
    14:00 +2°C° 0.3 mm 2 mps 733 mmHg 97%
    15:00 +2°C° 0.2 mm 2 mps 732 mmHg 97%
    16:00 +2°C° 0.2 mm 2 mps 732 mmHg 97%
    17:00 +1°C° 0.2 mm 3 mps 732 mmHg 97%
    18:00 +1°C° 0.3 mm 3 mps 732 mmHg 97%
    19:00 +1°C° 0.3 mm 3 mps 732 mmHg 97%
    20:00 +1°C° 0.3 mm 2 mps 732 mmHg 97%
    21:00 +1°C° 0.4 mm 2 mps 732 mmHg 97%
    22:00 +1°C° 0.4 mm 2 mps 732 mmHg 97%
    23:00 +1°C° 0.4 mm 2 mps 732 mmHg 97%

    Day after tomorrow, 28 January, Tuesday

    Time Temperature Precipitation Wind Pressure Humidity
    00:00 +1°C° 0.4 mm 2 mps 731 mmHg 97%
    01:00 -1°C° 0.4 mm 2 mps 731 mmHg 97%
    02:00 -1°C° 0.4 mm 2 mps 731 mmHg 97%
    03:00 -1°C° 0.1 mm 2 mps 731 mmHg 97%
    04:00 -1°C° 0.1 mm 2 mps 731 mmHg 97%
    05:00 -1°C° 0.1 mm 2 mps 731 mmHg 97%
    06:00 -1°C° 0.1 mm 2 mps 731 mmHg 97%
    07:00 -1°C° 0.1 mm 2 mps 731 mmHg 97%
    08:00 -1°C° 0.1 mm 2 mps 730 mmHg 97%
    09:00 -1°C° 0.1 mm 2 mps 731 mmHg 97%
    10:00 -1°C° 0.1 mm 2 mps 731 mmHg 97%
    11:00 -1°C° 0.1 mm 2 mps 731 mmHg 96%
    12:00 +1°C° 0 mm 2 mps 731 mmHg 94%
    13:00 +1°C° 0 mm 2 mps 731 mmHg 92%
    14:00 +1°C° 0 mm 2 mps 730 mmHg 90%
    15:00 +1°C° 0 mm 2 mps 730 mmHg 91%
    16:00 +1°C° 0 mm 2 mps 730 mmHg 92%
    17:00 -1°C° 0 mm 2 mps 730 mmHg 93%
    18:00 -1°C° 0 mm 2 mps 730 mmHg 93%
    19:00 -1°C° 0 mm 2 mps 730 mmHg 94%
    20:00 -1°C° 0 mm 2 mps 730 mmHg 94%
    21:00 -1°C° 0 mm 3 mps 730 mmHg 94%
    22:00 -1°C° 0 mm 3 mps 730 mmHg 94%
    23:00 -1°C° 0 mm 3 mps 730 mmHg 94%

    29 January, Wednesday

    Time Temperature Precipitation Wind Pressure Humidity
    00:00 -1°C° 0 mm 3 mps 730 mmHg 94%
    01:00 -1°C° 0 mm 3 mps 729 mmHg 93%
    02:00 0°C° 0 mm 3 mps 729 mmHg 93%
    03:00 -1°C° 0 mm 3 mps 729 mmHg 93%
    04:00 -2°C° 0 mm 4 mps 728 mmHg 93%
    05:00 -3°C° 0 mm 4 mps 728 mmHg 93%
    06:00 -3°C° 0 mm 4 mps 728 mmHg 93%
    07:00 -3°C° 0 mm 4 mps 728 mmHg 92%
    08:00 -3°C° 0 mm 4 mps 728 mmHg 91%
    09:00 -3°C° 0 mm 4 mps 728 mmHg 92%
    10:00 -3°C° 0 mm 4 mps 728 mmHg 92%
    11:00 -3°C° 0 mm 4 mps 727 mmHg 92%
    12:00 -2°C° 0 mm 4 mps 727 mmHg 91%
    13:00 -2°C° 0 mm 4 mps 727 mmHg 89%
    14:00 -2°C° 0 mm 4 mps 727 mmHg 88%
    15:00 -2°C° 0 mm 4 mps 727 mmHg 90%
    16:00 -2°C° 0 mm 4 mps 727 mmHg 91%
    17:00 -2°C° 0 mm 4 mps 727 mmHg 93%
    18:00 -2°C° 0 mm 4 mps 727 mmHg 93%
    19:00 -1°C° 0 mm 4 mps 726 mmHg 94%
    20:00 -1°C° 0 mm 4 mps 726 mmHg 94%
    21:00 -1°C° 0 mm 4 mps 726 mmHg 95%
    22:00 -1°C° 0 mm 4 mps 726 mmHg 95%
    23:00 0°C° 0 mm 3 mps 725 mmHg 96%

    30 January, Thursday

    Time Temperature Precipitation Wind Pressure Humidity
    00:00 0°C° 0 mm 3 mps 725 mmHg 95%
    01:00 0°C° 0 mm 3 mps 725 mmHg 94%
    02:00 0°C° 0 mm 3 mps 725 mmHg 94%
    03:00 0°C° 0 mm 3 mps 725 mmHg 94%
    04:00 0°C° 0 mm 3 mps 724 mmHg 94%
    05:00 0°C° 0 mm 3 mps 724 mmHg 94%
    06:00 -1°C° 0 mm 3 mps 724 mmHg 94%
    07:00 -1°C° 0 mm 3 mps 724 mmHg 94%
    08:00 -1°C° 0 mm 3 mps 724 mmHg 94%
    09:00 -1°C° 0 mm 3 mps 724 mmHg 93%
    10:00 -1°C° 0 mm 3 mps 724 mmHg 92%
    11:00 -1°C° 0 mm 3 mps 724 mmHg 91%
    12:00 -1°C° 0 mm 3 mps 724 mmHg 92%
    13:00 -1°C° 0 mm 3 mps 723 mmHg 92%
    14:00 -1°C° 0 mm 3 mps 723 mmHg 92%
    15:00 -1°C° 0.1 mm 3 mps 723 mmHg 94%
    16:00 -1°C° 0.1 mm 3 mps 723 mmHg 95%
    17:00 -1°C° 0.1 mm 2 mps 723 mmHg 96%
    18:00 -1°C° 0.2 mm 2 mps 723 mmHg 97%
    19:00 -1°C° 0.2 mm 2 mps 723 mmHg 97%
    20:00 -1°C° 0.2 mm 2 mps 723 mmHg 97%
    21:00 -1°C° 0.3 mm 2 mps 723 mmHg 97%
    22:00 -1°C° 0.3 mm 2 mps 724 mmHg 97%
    23:00 -1°C° 0.3 mm 2 mps 724 mmHg 97%

    31 January, Friday

    Time Temperature Precipitation Wind Pressure Humidity
    00:00 -1°C° 0.3 mm 2 mps 724 mmHg 97%
    01:00 -1°C° 0.3 mm 2 mps 724 mmHg 97%
    02:00 -1°C° 0.3 mm 2 mps 724 mmHg 98%
    03:00 -1°C° 0.3 mm 2 mps 725 mmHg 98%
    04:00 +1°C° 0.3 mm 1 mps 725 mmHg 98%
    05:00 +1°C° 0.3 mm 1 mps 725 mmHg 98%
    06:00 0°C° 0.2 mm 1 mps 725 mmHg 98%
    07:00 0°C° 0.2 mm 1 mps 726 mmHg 98%
    08:00 0°C° 0.2 mm 1 mps 726 mmHg 98%
    09:00 0°C° 0.3 mm 1 mps 726 mmHg 97%
    10:00 0°C° 0.3 mm 1 mps 727 mmHg 96%
    11:00 0°C° 0.3 mm 1 mps 727 mmHg 95%
    12:00 +1°C° 0.2 mm 1 mps 727 mmHg 95%
    13:00 +1°C° 0.2 mm 1 mps 728 mmHg 95%
    14:00 -1°C° 0.2 mm 2 mps 728 mmHg 95%
    15:00 -2°C° 0.2 mm 2 mps 729 mmHg 96%
    16:00 -2°C° 0.2 mm 2 mps 729 mmHg 97%
    17:00 -2°C° 0.2 mm 2 mps 729 mmHg 97%
    18:00 -2°C° 0.1 mm 2 mps 730 mmHg 97%
    19:00 -2°C° 0.1 mm 2 mps 730 mmHg 97%
    20:00 -2°C° 0.1 mm 2 mps 731 mmHg 97%
    21:00 -1°C° 0.1 mm 1 mps 731 mmHg 97%
    22:00 -1°C° 0.1 mm 1 mps 731 mmHg 97%
    23:00 -1°C° 0.1 mm 1 mps 732 mmHg 97%
    Show more